Estació meteorològica de Susqueda - Presa de (La Selva, Susqueda)

Consulta les dades en temps real de l'estació meteorològica de Susqueda - Presa de





Hora UTC 19:55
Temperatura 26.1 ºC
Humitat 71.0 %
Pressió 1019.2 hPa
Pluja 0.0 mm
Velocitat vent 0.0 km/h
Direcció vent ENE

Webcam

Dades diàries 2026-09-03



Hora UTC (hivern +1h; estiu +2h)
Temperatura (ºC) Humitat (%) Pressió (hPa) Velocitat vent (km/h) Precipitació (mm)
Hora UTC Aire Humitat Pressió Vel. Dir. Vel. Max Dir. Intent. màx 5 min.
00:05 21.8 75.0 1020.2 0.0 W 0.0 0.0
00:10 21.7 76.0 1020.3 0.0 WSW 0.0 0.0
00:15 21.6 76.0 1020.3 0.0 W 0.0 0.0
00:20 21.6 76.0 1020.2 0.0 W 4.8 0.0
00:25 21.4 76.0 1020.2 0.0 W 4.8 0.0
00:30 21.2 77.0 1020.2 0.0 W 8.0 0.0
00:35 21.4 76.0 1020.4 0.0 W 3.2 0.0
00:40 21.6 76.0 1020.4 0.0 WNW 6.4 0.0
00:45 21.6 76.0 1020.4 0.0 NW 9.7 0.0
00:50 21.6 76.0 1020.4 0.0 WNW 9.7 0.0
00:55 21.4 76.0 1020.4 0.0 WSW 11.3 0.0
01:00 21.4 76.0 1020.3 0.0 W 11.3 0.0
01:05 21.4 76.0 1020.3 0.0 WNW 11.3 0.0
01:10 21.4 76.0 1020.2 4.8 W 6.4 0.0
01:15 21.6 75.0 1020.3 0.0 W 6.4 0.0
01:20 21.5 75.0 1020.3 6.4 W 11.3 0.0
01:25 21.2 76.0 1020.3 0.0 W 11.3 0.0
01:30 20.9 77.0 1020.3 0.0 WNW 6.4 0.0
01:35 21.0 77.0 1020.3 0.0 W 6.4 0.0
01:40 21.0 77.0 1020.3 0.0 WNW 4.8 0.0
01:45 20.9 77.0 1020.4 0.0 NNW 4.8 0.0
01:50 20.8 78.0 1020.4 0.0 W 3.2 0.0
01:55 20.8 78.0 1020.4 0.0 WNW 8.0 0.0
02:00 20.8 78.0 1020.3 6.4 WNW 9.7 0.0
02:05 20.8 78.0 1020.3 6.4 W 11.3 0.0
02:10 20.7 78.0 1020.2 0.0 W 11.3 0.0
02:15 20.6 79.0 1020.3 0.0 W 1.6 0.0
02:20 20.5 79.0 1020.3 8.0 WSW 8.0 0.0
02:25 20.4 79.0 1020.3 0.0 W 9.7 0.0
02:30 20.4 79.0 1020.3 6.4 WNW 11.3 0.0
02:35 20.6 79.0 1020.2 1.6 WSW 11.3 0.0
02:40 20.6 78.0 1020.2 11.3 WNW 11.3 0.0
02:45 20.7 78.0 1020.2 6.4 WNW 11.3 0.0
02:50 20.6 78.0 1020.2 0.0 W 11.3 0.0
02:55 20.5 78.0 1020.2 4.8 WNW 11.3 0.0
03:00 20.5 78.0 1020.2 0.0 WNW 11.3 0.0
03:05 20.4 79.0 1020.3 11.3 WSW 12.9 0.0
03:10 20.4 79.0 1020.1 1.6 W 12.9 0.0
03:15 20.3 79.0 1020.1 0.0 W 11.3 0.0
03:20 20.2 79.0 1020.1 0.0 WSW 11.3 0.0
03:25 20.2 79.0 1020.1 1.6 WNW 9.7 0.0
03:30 20.2 79.0 1020.1 0.0 WNW 9.7 0.0
03:35 20.1 79.0 1020.0 0.0 W 9.7 0.0
03:40 20.1 79.0 1019.8 0.0 W 9.7 0.0
03:45 20.1 79.0 1020.0 0.0 W 9.7 0.0
03:50 19.9 80.0 1020.0 0.0 W 9.7 0.0
03:55 19.8 80.0 1020.0 0.0 WNW 9.7 0.0
04:00 19.8 80.0 1020.0 0.0 W 1.6 0.0
04:05 19.8 80.0 1020.0 0.0 W 1.6 0.0
04:10 19.7 81.0 1019.9 0.0 W 11.3 0.0
04:15 19.8 81.0 1019.8 0.0 W 9.7 0.0
04:20 19.8 81.0 1019.9 0.0 WNW 9.7 0.0
04:25 19.7 81.0 1019.9 0.0 W 9.7 0.0
04:30 19.8 80.0 1019.8 3.2 W 8.0 0.0
04:35 19.9 80.0 1019.8 0.0 W 11.3 0.0
04:40 19.8 80.0 1019.9 0.0 W 11.3 0.0
04:45 19.6 81.0 1020.0 0.0 WNW 1.6 0.0
04:50 19.4 81.0 1020.0 0.0 W 1.6 0.0
04:55 19.4 82.0 1020.0 0.0 WSW 9.7 0.0
05:00 19.3 82.0 1020.0 0.0 W 9.7 0.0
05:05 19.2 82.0 1020.1 0.0 W 1.6 0.0
05:10 19.2 83.0 1020.1 0.0 W 1.6 0.0
05:15 19.2 83.0 1020.1 0.0 SW 9.7 0.0
05:20 19.2 83.0 1020.3 0.0 WNW 4.8 0.0
05:25 19.1 83.0 1020.3 0.0 WNW 8.0 0.0
05:30 19.0 84.0 1020.3 0.0 W 6.4 0.0
05:35 19.0 84.0 1020.3 0.0 W 1.6 0.0
05:40 19.2 83.0 1020.4 6.4 WSW 11.3 0.0
05:45 19.2 83.0 1020.5 9.7 W 9.7 0.0
05:50 19.2 83.0 1020.4 0.0 WNW 9.7 0.0
05:55 19.2 83.0 1020.5 8.0 WNW 11.3 0.0
06:00 19.1 83.0 1020.6 9.7 W 11.3 0.0
06:05 19.2 83.0 1020.6 1.6 W 11.3 0.0
06:10 19.3 83.0 1020.6 0.0 WSW 8.0 0.0
06:15 19.4 82.0 1020.6 0.0 W 8.0 0.0
06:20 19.4 82.0 1020.7 0.0 W 6.4 0.0
06:25 19.4 82.0 1020.7 0.0 W 1.6 0.0
06:30 19.4 82.0 1020.7 0.0 WSW 8.0 0.0
06:35 19.6 82.0 1020.7 0.0 W 8.0 0.0
06:40 19.7 83.0 1020.7 0.0 SW 6.4 0.0
06:45 19.8 81.0 1020.7 3.2 W 8.0 0.0
06:50 19.8 81.0 1020.7 8.0 WNW 11.3 0.0
06:55 20.0 81.0 1020.7 4.8 WSW 11.3 0.0
07:00 20.2 81.0 1020.7 0.0 W 11.3 0.0
07:05 20.2 83.0 1020.7 0.0 WSW 11.3 0.0
07:10 20.1 82.0 1020.7 6.4 WSW 8.0 0.0
07:15 20.3 80.0 1020.7 0.0 W 9.7 0.0
07:20 20.6 80.0 1020.7 0.0 W 11.3 0.0
07:25 20.9 79.0 1020.7 0.0 W 11.3 0.0
07:30 20.9 80.0 1020.7 0.0 WSW 8.0 0.0
07:35 21.0 80.0 1020.6 0.0 W 1.6 0.0
07:40 21.3 79.0 1020.5 9.7 W 11.3 0.0
07:45 21.4 78.0 1020.5 6.4 WSW 11.3 0.0
07:50 21.6 78.0 1020.5 8.0 WSW 11.3 0.0
07:55 21.7 78.0 1020.5 1.6 W 11.3 0.0
08:00 21.8 77.0 1020.5 0.0 SW 11.3 0.0
08:05 21.9 77.0 1020.4 0.0 SW 8.0 0.0
08:10 22.2 77.0 1020.4 0.0 WSW 1.6 0.0
08:15 22.3 75.0 1020.4 0.0 WSW 1.6 0.0
08:20 22.5 75.0 1020.5 0.0 WSW 0.0 0.0
08:25 22.8 74.0 1020.5 0.0 WSW 0.0 0.0
08:30 23.1 73.0 1020.5 0.0 WSW 0.0 0.0
08:35 23.2 73.0 1020.5 0.0 WSW 0.0 0.0
08:40 23.2 72.0 1020.5 0.0 WSW 0.0 0.0
08:45 23.4 72.0 1020.5 0.0 WSW 0.0 0.0
08:50 23.6 71.0 1020.5 0.0 WSW 0.0 0.0
08:55 23.8 69.0 1020.5 0.0 WSW 0.0 0.0
09:00 24.1 70.0 1020.5 0.0 WSW 0.0 0.0
09:05 24.2 69.0 1020.4 0.0 WSW 0.0 0.0
09:10 24.4 69.0 1020.3 0.0 WSW 0.0 0.0
09:15 24.8 70.0 1020.3 0.0 WSW 0.0 0.0
09:20 25.7 61.0 1020.3 0.0 WNW 1.6 0.0
09:25 26.5 58.0 1020.2 0.0 W 6.4 0.0
09:30 27.0 57.0 1020.2 0.0 W 9.7 0.0
09:35 27.3 55.0 1020.2 0.0 WSW 9.7 0.0
09:40 27.9 54.0 1020.1 0.0 W 9.7 0.0
09:45 28.0 54.0 1020.1 9.7 W 9.7 0.0
09:50 28.1 54.0 1020.1 0.0 W 9.7 0.0
09:55 28.1 59.0 1020.1 0.0 W 9.7 0.0
10:00 28.1 53.0 1020.1 0.0 W 1.6 0.0
10:05 28.3 52.0 1020.0 0.0 W 1.6 0.0
10:10 28.7 50.0 1019.9 0.0 W 9.7 0.0
10:15 29.3 51.0 1019.9 0.0 W 9.7 0.0
10:20 29.1 50.0 1019.9 0.0 W 6.4 0.0
10:25 28.9 53.0 1019.8 0.0 W 6.4 0.0
10:30 29.0 51.0 1019.8 0.0 W 0.0 0.0
10:35 29.3 50.0 1019.7 0.0 W 0.0 0.0
10:40 29.5 51.0 1019.5 8.0 WSW 11.3 0.0
10:45 29.6 50.0 1019.5 1.6 WSW 11.3 0.0
10:50 29.6 49.0 1019.5 0.0 W 9.7 0.0
10:55 29.6 49.0 1019.4 0.0 W 9.7 0.0
11:00 29.7 49.0 1019.3 0.0 W 9.7 0.0
11:05 30.0 47.0 1019.3 0.0 W 9.7 0.0
11:10 30.1 47.0 1019.3 0.0 W 9.7 0.0
11:15 30.3 47.0 1019.3 0.0 SSW 0.0 0.0
11:20 30.8 45.0 1019.2 0.0 SSW 0.0 0.0
11:25 31.9 44.0 1019.2 0.0 E 0.0 0.0
11:30 33.1 42.0 1019.1 0.0 ESE 1.6 0.0
11:35 33.7 41.0 1019.0 0.0 E 9.7 0.0
11:40 34.0 40.0 1019.0 0.0 ENE 9.7 0.0
11:45 34.1 39.0 1019.0 0.0 ESE 11.3 0.0
11:50 33.6 41.0 1018.9 0.0 E 11.3 0.0
11:55 33.8 40.0 1018.9 0.0 ESE 9.7 0.0
12:00 33.7 40.0 1018.7 0.0 ESE 11.3 0.0
12:05 34.2 40.0 1018.7 0.0 ENE 11.3 0.0
12:10 34.6 39.0 1018.6 0.0 ESE 9.7 0.0
12:15 34.4 40.0 1018.5 1.6 ESE 11.3 0.0
12:20 34.3 39.0 1018.4 4.8 E 11.3 0.0
12:25 34.1 40.0 1018.3 0.0 ENE 11.3 0.0
12:30 34.2 39.0 1018.4 0.0 ESE 11.3 0.0
12:35 34.2 40.0 1018.4 0.0 ENE 9.7 0.0
12:40 34.3 39.0 1018.4 11.3 E 11.3 0.0
12:45 34.1 40.0 1018.4 0.0 E 11.3 0.0
12:50 33.7 40.0 1018.5 0.0 NNE 11.3 0.0
12:55 33.7 40.0 1018.4 4.8 NE 11.3 0.0
13:00 33.3 41.0 1018.6 0.0 NE 4.8 0.0
13:05 33.1 41.0 1018.5 0.0 ENE 9.7 0.0
13:10 33.4 42.0 1018.5 0.0 ENE 9.7 0.0
13:15 33.6 41.0 1018.4 0.0 N 3.2 0.0
13:20 33.8 41.0 1018.5 0.0 E 4.8 0.0
13:25 34.0 41.0 1018.4 0.0 NNE 4.8 0.0
13:30 33.9 41.0 1018.3 0.0 NE 6.4 0.0
13:35 33.2 42.0 1018.4 0.0 ENE 8.0 0.0
13:40 33.2 43.0 1018.3 0.0 ENE 8.0 0.0
13:45 33.0 43.0 1018.2 0.0 ESE 3.2 0.0
13:50 32.8 44.0 1018.2 0.0 NNW 1.6 0.0
13:55 33.0 44.0 1018.2 0.0 NW 1.6 0.0
14:00 33.3 44.0 1018.2 0.0 N 3.2 0.0
14:05 33.6 44.0 1018.1 0.0 E 3.2 0.0
14:10 33.8 43.0 1018.1 0.0 ESE 1.6 0.0
14:15 33.9 44.0 1018.0 0.0 ESE 1.6 0.0
14:20 34.1 44.0 1017.8 0.0 N 1.6 0.0
14:25 33.9 44.0 1017.9 0.0 NE 1.6 0.0
14:30 34.0 44.0 1017.8 0.0 NNE 1.6 0.0
14:35 33.9 45.0 1017.8 0.0 ENE 1.6 0.0
14:40 34.1 44.0 1017.8 0.0 NNW 4.8 0.0
14:45 33.8 44.0 1017.8 0.0 E 4.8 0.0
14:50 33.3 45.0 1017.7 0.0 ENE 4.8 0.0
14:55 33.2 45.0 1017.7 0.0 ENE 4.8 0.0
15:00 32.9 46.0 1017.7 0.0 E 9.7 0.0
15:05 32.9 45.0 1017.7 6.4 E 9.7 0.0
15:10 32.8 45.0 1017.6 0.0 ESE 9.7 0.0
15:15 32.7 45.0 1017.6 0.0 ENE 11.3 0.0
15:20 32.4 46.0 1017.5 0.0 E 11.3 0.0
15:25 32.4 46.0 1017.5 0.0 ENE 8.0 0.0
15:30 32.4 45.0 1017.5 0.0 ENE 8.0 0.0
15:35 32.3 46.0 1017.5 0.0 E 8.0 0.0
15:40 32.3 46.0 1017.5 0.0 E 11.3 0.0
15:45 32.5 45.0 1017.5 1.6 ENE 11.3 0.0
15:50 32.6 45.0 1017.6 0.0 ENE 3.2 0.0
15:55 32.9 44.0 1017.6 0.0 ENE 1.6 0.0
16:00 32.8 45.0 1017.6 0.0 E 0.0 0.0
16:05 32.6 45.0 1017.7 0.0 N 1.6 0.0
16:10 33.1 45.0 1017.7 0.0 ESE 1.6 0.0
16:15 33.3 44.0 1017.7 0.0 ENE 1.6 0.0
16:20 33.4 44.0 1017.8 0.0 WSW 1.6 0.0
16:25 33.2 45.0 1017.8 0.0 ESE 1.6 0.0
16:30 32.9 44.0 1017.9 0.0 ENE 1.6 0.0
16:35 33.0 45.0 1018.1 0.0 N 0.0 0.0
16:40 33.2 44.0 1018.1 0.0 NNE 0.0 0.0
16:45 32.9 45.0 1018.1 0.0 NE 1.6 0.0
16:50 32.8 45.0 1018.1 0.0 ENE 1.6 0.0
16:55 32.7 46.0 1018.1 0.0 N 0.0 0.0
17:00 32.5 46.0 1018.1 0.0 NNW 0.0 0.0
17:05 32.3 47.0 1018.1 0.0 NE 0.0 0.0
17:10 32.1 48.0 1018.2 0.0 ENE 0.0 0.0
17:15 31.8 48.0 1018.1 0.0 ENE 1.6 0.0
17:20 31.0 49.0 1018.1 0.0 NNE 3.2 0.0
17:25 30.6 50.0 1018.1 0.0 ENE 3.2 0.0
17:30 30.3 52.0 1018.2 0.0 NE 1.6 0.0
17:35 30.2 53.0 1018.2 0.0 NE 0.0 0.0
17:40 30.0 54.0 1018.2 0.0 NE 0.0 0.0
17:45 29.8 55.0 1018.3 0.0 ENE 0.0 0.0
17:50 29.6 56.0 1018.3 0.0 E 0.0 0.0
17:55 29.3 57.0 1018.4 0.0 ENE 3.2 0.0
18:00 28.9 59.0 1018.3 0.0 NE 3.2 0.0
18:05 28.7 60.0 1018.4 0.0 E 0.0 0.0
18:10 28.7 60.0 1018.4 0.0 E 0.0 0.0
18:15 28.5 61.0 1018.5 0.0 E 1.6 0.0
18:20 28.3 62.0 1018.5 0.0 E 1.6 0.0
18:25 28.2 62.0 1018.5 6.4 ENE 6.4 0.0
18:30 28.1 63.0 1018.6 0.0 E 6.4 0.0
18:35 27.9 63.0 1018.6 0.0 E 0.0 0.0
18:40 27.7 64.0 1018.6 0.0 ENE 0.0 0.0
18:45 27.5 64.0 1018.7 0.0 E 1.6 0.0
18:50 27.3 66.0 1018.6 0.0 ENE 1.6 0.0
18:55 27.2 66.0 1018.7 0.0 ENE 0.0 0.0
19:00 27.0 67.0 1018.7 0.0 E 0.0 0.0
19:05 26.8 68.0 1018.8 0.0 ENE 0.0 0.0
19:10 26.7 68.0 1018.8 0.0 ENE 0.0 0.0
19:15 26.7 69.0 1018.8 0.0 ENE 0.0 0.0
19:20 26.6 69.0 1018.9 0.0 ENE 0.0 0.0
19:25 26.6 69.0 1018.9 0.0 ENE 0.0 0.0
19:30 26.4 69.0 1018.9 0.0 ENE 0.0 0.0
19:35 26.4 69.0 1019.0 0.0 ENE 0.0 0.0
19:40 26.3 69.0 1019.1 0.0 ENE 0.0 0.0
19:45 26.2 69.0 1019.1 0.0 ENE 0.0 0.0
19:50 26.1 69.0 1019.2 0.0 ENE 0.0 0.0
19:55 26.1 71.0 1019.2 0.0 ENE 0.0 0.0
Màxima 34.6 84.0 1020.7 11.3 E 12.9 0.0
Mínima 19.0 39.0 1017.5
Total 0.0